Regional Weather Roundup
Issued by NWS Little Rock, AR

Home | Current Version | Previous Version | Text Only | Print | Product List | Glossary Off
Versions: 1 2 3 4 5 6 7 8 9 10 11 12 13 14 15 16 17 18 19 20 21 22 23 24 25 26 27 28 29 30 31 32 33 34 35 36 37 38 39 40 41 42 43 44 45 46 47 48 49 50

000
ASUS44 KLZK 301505
RWRLZK

WEATHER ROUNDUP FOR ARKANSAS
NATIONAL WEATHER SERVICE LITTLE ROCK AR
1000 AM CDT SAT AUG 30 2014

NOTE: "FAIR" INDICATES FEW OR NO CLOUDS BELOW 12,000 FEET WITH NO
SIGNIFICANT WEATHER AND/OR OBSTRUCTIONS TO VISIBILITY.

ARZ001-003-010-029-301600-
NORTHWEST ARKANSAS

CITY           SKY/WX    TMP DP  RH WIND       PRES   REMARKS
FAYETTEVILLE   MOSUNNY   76  70  82 SW8       30.01S
FORT SMITH     PTSUNNY   77  72  84 SE7       29.98S
HARRISON       PTSUNNY   77  71  82 VRB5      30.02S
BENTONVILLE    PTSUNNY   75  70  83 S9        30.02R
ROGERS         PTSUNNY   76  68  76 S10       30.02R
SILOAM SPGS    MOSUNNY   77  64  65 SW13      30.02R
HIGHFILL       MOSUNNY   78  69  73 S13G20    30.01R
SPRINGDALE     MOSUNNY   75  70  83 S10       30.03S
$$

ARZ004-005-016-301600-
NORTH CENTRAL ARKANSAS

CITY           SKY/WX    TMP DP  RH WIND       PRES   REMARKS
BATESVILLE     CLOUDY    79  73  83 SW6       30.02R
FLIPPIN        PTSUNNY   72  66  83 S3        30.01S
MTN HOME       LGT RAIN  72  71  97 S8        30.01R
$$

ARZ040-041-301600-
WEST CENTRAL ARKANSAS

CITY           SKY/WX    TMP DP  RH WIND       PRES   REMARKS
MENA           SUNNY     81  72  74 S5        30.02S
MOUNT IDA      PTSUNNY   80  71  74 CALM      29.99S
$$

ARZ009-017-025-026-028-301600-
NORTHEAST ARKANSAS

CITY           SKY/WX    TMP DP  RH WIND       PRES   REMARKS
CORNING          N/A     77  75  94 SW8       30.02S
JONESBORO      CLOUDY    78  72  81 SW7       30.02R
NEWPORT        CLOUDY    80  75  84 SW8       30.03R HX  85
WALNUT RIDGE   CLOUDY    77  72  83 S12       30.01S
BLYTHEVILLE    CLOUDY    81  75  82 SW8       30.04R HX  87
$$

ARZ022-023-033-042-044-301600-
CENTRAL ARKANSAS

CITY           SKY/WX    TMP DP  RH WIND       PRES   REMARKS
LITTLE ROCK    CLOUDY    78  71  79 S3        30.02R
N LITTLE ROCK  PTSUNNY   78  72  82 SW8       30.02R
JACKSONVILLE   CLOUDY    78  73  84 S5        30.02R
SEARCY         CLOUDY    78  75  90 SW5       30.03R
HOT SPRINGS      N/A     77  71  82 S5        30.02R
RUSSELLVILLE   CLOUDY    78  73  84 E3        30.01R
CLINTON        PTSUNNY   75  73  94 CALM      30.03S
$$

ARZ036-301600-
EAST ARKANSAS

CITY           SKY/WX    TMP DP  RH WIND       PRES   REMARKS
WEST MEMPHIS   LGT RAIN  77  76  96 S7        30.04R
$$

ARZ050-053-066-070-073-301600-
SOUTHWEST ARKANSAS

CITY           SKY/WX    TMP DP  RH WIND       PRES   REMARKS
ARKADELPHIA    FAIR      79  74  84 CALM      30.01S
CAMDEN         PTSUNNY   77  72  83 CALM      30.01R
TEXARKANA      CLOUDY    80  73  79 SE3       30.00R
EL DORADO      CLOUDY    76  73  91 E5        30.01S
DE QUEEN       CLOUDY    78  71  79 CALM      29.98S
$$

ARZ056-057-069-301600-
SOUTHEAST ARKANSAS

CITY           SKY/WX    TMP DP  RH WIND       PRES   REMARKS
PINE BLUFF     CLOUDY    77  73  87 S6        30.02S
STUTTGART      CLOUDY    77  73  88 S6        30.03S
MONTICELLO     LGT RAIN  77  73  87 SE3       30.03R

$$




USA.gov is the U.S. government's official web portal to all federal, state and local government web resources and services.